Location: Powder Track
(41.8531°N, 72.3584°W)
Time: 08:48:57
(UTC+00:00)

Altair - Pass Details

Date: 05 August 2021
Orbit: 1501 x 1682 km, 47.2° (Epoch: 19 September)

Event Time Altitude Azimuth Distance (km) Brightness Sun altitude
Exits shadow 06:17:12 36° 252° (WSW) 2,260 8.0 -28.3°
Maximum altitude 06:21:43 83° 337° (NNW) 1,547 7.4 -28.0°
Drops below altitude 10° 06:31:00 10° 66° (ENE) 3,666 10.1 -27.2°
Sets 06:34:00 0° 68° (ENE) 4,641 10.7 -27.0°
